Time,TemperatureF,DewpointF,PressureIn,WindDirection,WindDirectionDegrees,WindSpeedMPH,WindSpeedGustMPH,Humidity,HourlyPrecipIn,Conditions,Clouds,dailyrainin,SoftwareType,DateUTC
2013-07-10 00:00:00,70.4,66.7,29.95,SE,146,1.2,1.2,88,0.00,CLR,,0.00,WeatherDisplay:10.37,2013-07-10 04:00:00,
2013-07-10 00:01:00,70.4,66.7,29.95,SE,146,1.2,1.2,88,0.00,CLR,,0.00,WeatherDisplay:10.37,2013-07-10 04:01:00,
2013-07-10 00:02:00,70.6,66.5,29.95,SE,146,2.3,2.3,87,0.00,CLR,,0.00,WeatherDisplay:10.37,2013-07-10 04:02:00,
2013-07-10 00:07:00,70.4,66.7,29.95,SE,146,0.0,0.2,88,0.00,CLR,,0.00,WeatherDisplay:10.37,2013-07-10 04:07:00,
2013-07-10 00:12:00,70.8,66.7,29.95,ESE,122,2.3,2.3,87,0.00,CLR,,0.00,WeatherDisplay:10.37,2013-07-10 04:12:00,
2013-07-10 00:17:00,70.9,66.8,29.95,ESE,121,2.3,2.3,87,0.00,CLR,,0.00,WeatherDisplay:10.37,2013-07-10 04:17:00,
2013-07-10 00:22:00,70.4,66.7,29.95,SE,146,0.0,0.2,88,0.00,CLR,,0.00,WeatherDisplay:10.37,2013-07-10 04:22:00,
2013-07-10 00:27:00,70.8,66.7,29.95,SE,126,2.3,2.3,87,0.00,CLR,,0.00,WeatherDisplay:10.37,2013-07-10 04:27:00,
2013-07-10 00:32:00,70.4,66.7,29.95,SE,146,0.0,0.2,88,0.00,CLR,,0.00,WeatherDisplay:10.37,2013-07-10 04:32:00,
2013-07-10 00:37:00,70.5,66.4,29.94,SE,126,0.0,0.0,87,0.00,CLR,,0.00,WeatherDisplay:10.37,2013-07-10 04:37:00,
2013-07-10 00:42:00,70.4,66.7,29.94,SE,126,0.0,0.1,88,0.00,CLR,,0.00,WeatherDisplay:10.37,2013-07-10 04:42:00,
2013-07-10 00:47:00,70.3,66.6,29.94,SE,131,1.2,0.0,88,0.00,CLR,,0.00,WeatherDisplay:10.37,2013-07-10 04:47:00,
2013-07-10 00:52:00,70.4,66.7,29.94,SE,126,0.0,0.1,88,0.00,CLR,,0.00,WeatherDisplay:10.37,2013-07-10 04:52:00,
2013-07-10 00:57:00,70.4,66.7,29.93,SW,219,0.0,0.0,88,0.00,CLR,,0.00,WeatherDisplay:10.37,2013-07-10 04:57:00,
2013-07-10 01:02:00,70.4,66.7,29.93,SSW,192,3.5,3.5,88,0.00,CLR,,0.00,WeatherDisplay:10.37,2013-07-10 05:02:00,
2013-07-10 01:07:00,70.7,66.6,29.93,SSW,194,3.5,3.5,87,0.00,CLR,,0.00,WeatherDisplay:10.37,2013-07-10 05:07:00,
2013-07-10 01:12:00,70.7,66.6,29.93,SSW,199,0.0,1.0,87,0.00,CLR,,0.00,WeatherDisplay:10.37,2013-07-10 05:12:00,
2013-07-10 01:17:00,70.7,66.6,29.93,South,179,2.3,2.3,87,0.00,CLR,,0.00,WeatherDisplay:10.37,2013-07-10 05:17:00,
2013-07-10 01:22:00,70.7,66.6,29.93,SSW,199,0.0,1.0,87,0.00,CLR,,0.00,WeatherDisplay:10.37,2013-07-10 05:22:00,
2013-07-10 01:27:00,70.7,66.6,29.92,South,178,1.2,1.2,87,0.00,CLR,,0.00,WeatherDisplay:10.37,2013-07-10 05:27:00,
2013-07-10 01:32:00,70.7,66.6,29.92,South,178,1.2,1.2,87,0.00,CLR,,0.00,WeatherDisplay:10.37,2013-07-10 05:32:00,
2013-07-10 01:37:00,70.7,66.6,29.92,South,178,1.2,1.2,87,0.00,CLR,,0.00,WeatherDisplay:10.37,2013-07-10 05:37:00,
2013-07-10 01:42:00,71.0,66.6,29.91,SSW,193,6.9,6.9,86,0.00,CLR,,0.00,WeatherDisplay:10.37,2013-07-10 05:42:00,
2013-07-10 01:47:00,70.7,66.6,29.92,South,178,1.2,1.2,87,0.00,CLR,,0.00,WeatherDisplay:10.37,2013-07-10 05:47:00,
2013-07-10 01:52:00,70.9,66.5,29.91,SSE,168,1.2,1.2,86,0.00,CLR,,0.00,WeatherDisplay:10.37,2013-07-10 05:52:00,
2013-07-10 01:57:00,70.7,66.6,29.91,South,184,2.3,2.3,87,0.00,CLR,,0.00,WeatherDisplay:10.37,2013-07-10 05:57:00,
2013-07-10 02:00:00,68.5,66.4,29.81,SE,141,1.0,3.0,93,0.02,RA,,0.36,WeatherDisplay:10.37,2013-07-10 06:00:00,
2013-07-10 02:02:00,70.5,66.4,29.91,South,169,1.2,1.2,87,0.00,CLR,,0.00,WeatherDisplay:10.37,2013-07-10 06:02:00,
2013-07-10 02:08:00,70.4,66.3,29.91,South,169,1.2,1.2,87,0.00,CLR,,0.00,WeatherDisplay:10.37,2013-07-10 06:08:00,
2013-07-10 02:13:00,70.4,66.3,29.91,South,187,1.2,2.0,87,0.00,CLR,,0.00,WeatherDisplay:10.37,2013-07-10 06:13:00,
2013-07-10 02:18:00,70.4,66.3,29.91,South,187,1.2,2.0,87,0.00,CLR,,0.00,WeatherDisplay:10.37,2013-07-10 06:18:00,
2013-07-10 02:23:00,70.5,66.4,29.91,SSE,163,0.0,0.0,87,0.00,CLR,,0.00,WeatherDisplay:10.37,2013-07-10 06:23:00,
2013-07-10 02:28:00,70.4,66.3,29.91,South,187,1.2,2.0,87,0.00,CLR,,0.00,WeatherDisplay:10.37,2013-07-10 06:28:00,
2013-07-10 02:33:00,70.6,66.2,29.90,East,91,1.2,1.2,86,0.00,CLR,,0.00,WeatherDisplay:10.37,2013-07-10 06:33:00,
2013-07-10 02:38:00,70.4,66.3,29.91,South,187,1.2,2.0,87,0.00,CLR,,0.00,WeatherDisplay:10.37,2013-07-10 06:38:00,
2013-07-10 02:43:00,70.4,66.3,29.91,South,187,1.2,2.0,87,0.00,CLR,,0.00,WeatherDisplay:10.37,2013-07-10 06:43:00,
2013-07-10 02:48:00,70.5,66.4,29.90,SSE,153,0.0,0.2,87,0.00,CLR,,0.00,WeatherDisplay:10.37,2013-07-10 06:48:00,
2013-07-10 02:53:00,70.4,66.3,29.91,South,187,1.2,2.0,87,0.00,CLR,,0.00,WeatherDisplay:10.37,2013-07-10 06:53:00,
2013-07-10 02:58:00,70.3,66.6,29.90,SSE,168,2.0,2.0,88,0.00,CLR,,0.00,WeatherDisplay:10.37,2013-07-10 06:58:00,
2013-07-10 03:03:00,70.3,66.6,29.90,South,186,1.2,1.2,88,0.00,CLR,,0.00,WeatherDisplay:10.37,2013-07-10 07:03:00,
2013-07-10 03:08:00,70.3,66.2,29.89,South,186,0.0,0.0,87,0.00,CLR,,0.00,WeatherDisplay:10.37,2013-07-10 07:08:00,
2013-07-10 03:13:00,70.3,66.6,29.89,South,178,3.5,3.5,88,0.00,CLR,,0.00,WeatherDisplay:10.37,2013-07-10 07:13:00,
2013-07-10 03:18:00,70.4,66.7,29.89,SSW,207,0.0,0.0,88,0.00,CLR,,0.00,WeatherDisplay:10.37,2013-07-10 07:18:00,
2013-07-10 03:23:00,70.3,66.6,29.89,South,188,3.5,3.5,88,0.00,CLR,,0.00,WeatherDisplay:10.37,2013-07-10 07:23:00,
2013-07-10 03:28:00,70.4,66.7,29.89,ESE,115,4.6,4.6,88,0.00,CLR,,0.00,WeatherDisplay:10.37,2013-07-10 07:28:00,
2013-07-10 03:33:00,70.4,66.7,29.89,SE,138,2.3,2.3,88,0.00,CLR,,0.00,WeatherDisplay:10.37,2013-07-10 07:33:00,
2013-07-10 03:38:00,70.4,66.3,29.88,SE,138,1.2,1.2,87,0.00,CLR,,0.00,WeatherDisplay:10.37,2013-07-10 07:38:00,
2013-07-10 03:43:00,70.4,66.7,29.89,South,189,1.2,1.2,88,0.00,CLR,,0.00,WeatherDisplay:10.37,2013-07-10 07:43:00,
2013-07-10 03:48:00,70.5,66.4,29.88,SE,138,1.2,1.2,87,0.00,CLR,,0.00,WeatherDisplay:10.37,2013-07-10 07:48:00,
2013-07-10 03:53:00,70.4,66.7,29.89,South,189,1.2,1.2,88,0.00,CLR,,0.00,WeatherDisplay:10.37,2013-07-10 07:53:00,
2013-07-10 03:58:00,70.4,66.7,29.88,SE,138,0.0,0.0,88,0.00,CLR,,0.00,WeatherDisplay:10.37,2013-07-10 07:58:00,
2013-07-10 04:03:00,70.3,66.6,29.88,SE,137,0.0,0.0,88,0.00,CLR,,0.00,WeatherDisplay:10.37,2013-07-10 08:03:00,
2013-07-10 04:08:00,69.9,66.2,29.88,SE,137,2.3,2.3,88,0.00,CLR,,0.00,WeatherDisplay:10.37,2013-07-10 08:08:00,
2013-07-10 04:13:00,69.8,66.1,29.88,SE,138,1.2,0.0,88,0.00,CLR,,0.00,WeatherDisplay:10.37,2013-07-10 08:13:00,
2013-07-10 04:18:00,69.8,66.1,29.88,SE,138,1.2,0.0,88,0.00,CLR,,0.00,WeatherDisplay:10.37,2013-07-10 08:18:00,
2013-07-10 04:23:00,70.3,66.6,29.88,SE,137,0.0,0.0,88,0.00,CLR,,0.00,WeatherDisplay:10.37,2013-07-10 08:23:00,
2013-07-10 04:28:00,70.0,66.3,29.88,SE,138,0.0,0.4,88,0.00,CLR,,0.00,WeatherDisplay:10.37,2013-07-10 08:28:00,
2013-07-10 04:33:00,70.0,66.3,29.88,SE,138,0.0,0.4,88,0.00,CLR,,0.00,WeatherDisplay:10.37,2013-07-10 08:33:00,
2013-07-10 04:38:00,70.0,66.3,29.88,SE,138,0.0,0.4,88,0.00,CLR,,0.00,WeatherDisplay:10.37,2013-07-10 08:38:00,
2013-07-10 04:43:00,70.0,66.3,29.88,SE,138,0.0,0.4,88,0.00,CLR,,0.00,WeatherDisplay:10.37,2013-07-10 08:43:00,
2013-07-10 04:48:00,70.3,66.6,29.88,SE,132,1.2,1.2,88,0.00,CLR,,0.00,WeatherDisplay:10.37,2013-07-10 08:48:00,
2013-07-10 04:53:00,70.0,66.3,29.88,SE,138,0.0,0.4,88,0.00,CLR,,0.00,WeatherDisplay:10.37,2013-07-10 08:53:00,
2013-07-10 04:58:00,69.7,66.0,29.88,SE,133,0.0,0.0,88,0.00,CLR,,0.00,WeatherDisplay:10.37,2013-07-10 08:58:00,
2013-07-10 05:03:00,69.5,66.1,29.88,SE,133,0.0,0.0,89,0.00,CLR,,0.00,WeatherDisplay:10.37,2013-07-10 09:03:00,
2013-07-10 05:08:00,69.5,65.8,29.88,ESE,102,1.2,0.0,88,0.00,CLR,,0.00,WeatherDisplay:10.37,2013-07-10 09:08:00,
2013-07-10 05:13:00,69.5,65.8,29.87,East,100,1.2,1.2,88,0.00,CLR,,0.00,WeatherDisplay:10.37,2013-07-10 09:13:00,
2013-07-10 05:18:00,69.5,65.8,29.87,East,100,1.2,1.2,88,0.00,CLR,,0.00,WeatherDisplay:10.37,2013-07-10 09:18:00,
2013-07-10 05:23:00,69.8,66.1,29.87,ESE,103,2.3,2.3,88,0.00,CLR,,0.00,WeatherDisplay:10.37,2013-07-10 09:23:00,
2013-07-10 05:28:00,69.5,65.8,29.87,East,100,1.2,1.2,88,0.00,CLR,,0.00,WeatherDisplay:10.37,2013-07-10 09:28:00,
2013-07-10 05:33:00,70.0,66.3,29.87,South,174,2.3,2.3,88,0.00,CLR,,0.00,WeatherDisplay:10.37,2013-07-10 09:33:00,
2013-07-10 05:38:00,69.5,65.8,29.87,East,100,1.2,1.2,88,0.00,CLR,,0.00,WeatherDisplay:10.37,2013-07-10 09:38:00,
2013-07-10 05:43:00,70.1,66.4,29.87,South,178,1.2,1.2,88,0.00,CLR,,0.00,WeatherDisplay:10.37,2013-07-10 09:43:00,
2013-07-10 05:49:00,69.9,66.2,29.87,South,182,0.0,0.0,88,0.00,CLR,,0.00,WeatherDisplay:10.37,2013-07-10 09:49:00,
2013-07-10 05:54:00,69.8,66.1,29.87,South,180,1.2,1.2,88,0.00,CLR,,0.00,WeatherDisplay:10.37,2013-07-10 09:54:00,
2013-07-10 05:59:00,69.6,66.2,29.87,ENE,69,3.5,3.5,89,0.00,CLR,,0.00,WeatherDisplay:10.37,2013-07-10 09:59:00,
2013-07-10 06:04:00,69.9,66.2,29.87,South,182,0.0,0.0,88,0.00,CLR,,0.00,WeatherDisplay:10.37,2013-07-10 10:04:00,
2013-07-10 06:09:00,69.3,65.9,29.87,SSW,205,0.0,1.2,89,0.00,CLR,,0.00,WeatherDisplay:10.37,2013-07-10 10:09:00,
2013-07-10 06:14:00,69.3,65.9,29.87,SSE,159,1.2,1.2,89,0.00,CLR,,0.00,WeatherDisplay:10.37,2013-07-10 10:14:00,
2013-07-10 06:19:00,69.4,66.0,29.88,SSW,196,1.2,1.2,89,0.00,CLR,,0.00,WeatherDisplay:10.37,2013-07-10 10:19:00,
2013-07-10 06:24:00,69.4,66.0,29.87,South,186,3.5,3.5,89,0.00,CLR,,0.00,WeatherDisplay:10.37,2013-07-10 10:24:00,
2013-07-10 06:29:00,69.4,66.0,29.87,South,170,0.0,0.7,89,0.00,CLR,,0.00,WeatherDisplay:10.37,2013-07-10 10:29:00,
2013-07-10 06:34:00,69.5,66.1,29.87,South,176,3.5,3.5,89,0.00,CLR,,0.00,WeatherDisplay:10.37,2013-07-10 10:34:00,
2013-07-10 06:39:00,69.4,66.0,29.87,SSE,149,2.3,2.3,89,0.00,CLR,,0.00,WeatherDisplay:10.37,2013-07-10 10:39:00,
2013-07-10 06:44:00,69.4,66.0,29.87,SSE,149,2.3,2.3,89,0.00,CLR,,0.00,WeatherDisplay:10.37,2013-07-10 10:44:00,
2013-07-10 06:49:00,69.4,66.0,29.87,SSE,149,2.3,2.3,89,0.00,CLR,,0.00,WeatherDisplay:10.37,2013-07-10 10:49:00,
2013-07-10 06:54:00,70.0,66.3,29.86,South,173,0.0,0.1,88,0.00,CLR,,0.00,WeatherDisplay:10.37,2013-07-10 10:54:00,
2013-07-10 06:59:00,70.2,66.5,29.86,East,97,2.3,2.3,88,0.00,CLR,,0.00,WeatherDisplay:10.37,2013-07-10 10:59:00,
2013-07-10 07:04:00,70.2,66.5,29.86,SSE,157,2.3,2.3,88,0.00,CLR,,0.00,WeatherDisplay:10.37,2013-07-10 11:04:00,
2013-07-10 07:09:00,70.3,66.6,29.85,South,188,3.5,3.5,88,0.00,CLR,,0.00,WeatherDisplay:10.37,2013-07-10 11:09:00,
2013-07-10 07:14:00,70.4,66.7,29.85,South,181,3.5,3.5,88,0.00,CLR,,0.00,WeatherDisplay:10.37,2013-07-10 11:14:00,
2013-07-10 07:19:00,70.3,66.6,29.85,SSE,160,0.0,0.2,88,0.00,CLR,,0.00,WeatherDisplay:10.37,2013-07-10 11:19:00,
2013-07-10 07:24:00,70.2,66.8,29.85,SSE,160,0.0,0.1,89,0.00,CLR,,0.00,WeatherDisplay:10.37,2013-07-10 11:24:00,
2013-07-10 07:29:00,70.2,66.8,29.85,SSE,160,0.0,0.1,89,0.00,CLR,,0.00,WeatherDisplay:10.37,2013-07-10 11:29:00,
2013-07-10 07:34:00,70.0,66.6,29.85,South,186,3.5,3.5,89,0.00,CLR,,0.00,WeatherDisplay:10.37,2013-07-10 11:34:00,
2013-07-10 07:39:00,69.9,66.5,29.86,South,174,1.2,1.2,89,0.00,CLR,,0.00,WeatherDisplay:10.37,2013-07-10 11:39:00,
2013-07-10 07:44:00,69.8,66.4,29.86,West,260,6.9,6.9,89,0.00,CLR,,0.00,WeatherDisplay:10.37,2013-07-10 11:44:00,
2013-07-10 07:49:00,70.1,66.7,29.85,South,179,0.0,0.5,89,0.00,CLR,,0.00,WeatherDisplay:10.37,2013-07-10 11:49:00,
2013-07-10 07:54:00,70.1,66.7,29.85,South,179,0.0,0.5,89,0.00,CLR,,0.00,WeatherDisplay:10.37,2013-07-10 11:54:00,
2013-07-10 07:59:00,70.1,66.7,29.85,South,179,0.0,0.5,89,0.00,CLR,,0.00,WeatherDisplay:10.37,2013-07-10 11:59:00,
2013-07-10 08:04:00,69.7,66.3,29.84,South,179,3.5,3.5,89,0.00,CLR,,0.00,WeatherDisplay:10.37,2013-07-10 12:04:00,
2013-07-10 08:09:00,69.7,66.3,29.84,South,179,0.0,0.9,89,0.00,CLR,,0.00,WeatherDisplay:10.37,2013-07-10 12:09:00,
2013-07-10 08:14:00,69.9,66.5,29.85,SSE,150,1.2,1.2,89,0.00,CLR,,0.00,WeatherDisplay:10.37,2013-07-10 12:14:00,
2013-07-10 08:19:00,70.0,66.6,29.84,South,185,1.2,1.2,89,0.00,CLR,,0.00,WeatherDisplay:10.37,2013-07-10 12:19:00,
2013-07-10 08:24:00,70.0,66.6,29.84,SSE,167,1.2,1.2,89,0.00,CLR,,0.00,WeatherDisplay:10.37,2013-07-10 12:24:00,
2013-07-10 08:29:00,70.2,66.8,29.84,SSE,167,3.5,3.5,89,0.00,CLR,,0.00,WeatherDisplay:10.37,2013-07-10 12:29:00,
2013-07-10 08:34:00,70.5,67.1,29.84,SSE,153,0.0,0.0,89,0.00,CLR,,0.00,WeatherDisplay:10.37,2013-07-10 12:34:00,
2013-07-10 08:39:00,70.1,66.7,29.84,SSE,167,0.0,0.4,89,0.00,CLR,,0.00,WeatherDisplay:10.37,2013-07-10 12:39:00,
2013-07-10 08:44:00,70.1,66.7,29.84,SSE,167,0.0,0.4,89,0.00,CLR,,0.00,WeatherDisplay:10.37,2013-07-10 12:44:00,
2013-07-10 08:49:00,70.1,66.7,29.84,SSE,167,0.0,0.4,89,0.00,CLR,,0.00,WeatherDisplay:10.37,2013-07-10 12:49:00,
2013-07-10 08:54:00,72.1,68.3,29.84,South,169,3.5,3.5,88,0.00,CLR,,0.00,WeatherDisplay:10.37,2013-07-10 12:54:00,
2013-07-10 08:59:00,72.8,68.7,29.84,South,169,2.3,2.3,87,0.00,CLR,,0.00,WeatherDisplay:10.37,2013-07-10 12:59:00,
2013-07-10 09:04:00,73.1,68.7,29.84,WSW,248,12.7,12.7,86,0.00,CLR,,0.00,WeatherDisplay:10.37,2013-07-10 13:04:00,
2013-07-10 09:09:00,73.3,68.5,29.83,South,183,3.5,3.5,85,0.00,CLR,,0.00,WeatherDisplay:10.37,2013-07-10 13:09:00,
2013-07-10 09:14:00,73.2,68.4,29.83,SW,230,2.3,2.3,85,0.00,CLR,,0.00,WeatherDisplay:10.37,2013-07-10 13:14:00,
2013-07-10 09:19:00,73.2,68.4,29.83,SW,230,2.3,2.3,85,0.00,CLR,,0.00,WeatherDisplay:10.37,2013-07-10 13:19:00,
2013-07-10 09:24:00,73.3,68.5,29.83,SSE,166,2.3,2.3,85,0.00,CLR,,0.00,WeatherDisplay:10.37,2013-07-10 13:24:00,
2013-07-10 09:29:00,73.2,68.4,29.83,SE,136,3.5,3.5,85,0.00,CLR,,0.00,WeatherDisplay:10.37,2013-07-10 13:29:00,
2013-07-10 09:34:00,73.2,68.4,29.83,SW,233,3.5,3.5,85,0.00,CLR,,0.00,WeatherDisplay:10.37,2013-07-10 13:34:00,
2013-07-10 09:39:00,73.3,68.5,29.83,South,190,6.9,6.9,85,0.00,CLR,,0.00,WeatherDisplay:10.37,2013-07-10 13:39:00,
2013-07-10 09:44:00,73.5,68.7,29.83,SSW,192,1.2,1.2,85,0.00,CLR,,0.00,WeatherDisplay:10.37,2013-07-10 13:44:00,
2013-07-10 09:49:00,73.2,68.4,29.83,SW,230,2.3,2.3,85,0.00,CLR,,0.00,WeatherDisplay:10.37,2013-07-10 13:49:00,
2013-07-10 09:54:00,73.5,68.4,29.83,South,169,3.5,3.5,84,0.00,CLR,,0.00,WeatherDisplay:10.37,2013-07-10 13:54:00,
2013-07-10 09:59:00,73.2,68.4,29.83,SW,230,2.3,2.3,85,0.00,CLR,,0.00,WeatherDisplay:10.37,2013-07-10 13:59:00,
2013-07-10 10:04:00,73.0,68.2,29.83,South,179,2.3,2.3,85,0.00,CLR,,0.00,WeatherDisplay:10.37,2013-07-10 14:04:00,
2013-07-10 10:09:00,73.0,68.2,29.83,South,180,0.0,0.3,85,0.00,CLR,,0.00,WeatherDisplay:10.37,2013-07-10 14:09:00,
2013-07-10 10:14:00,72.6,68.2,29.83,South,178,3.5,3.5,86,0.00,CLR,,0.00,WeatherDisplay:10.37,2013-07-10 14:14:00,
2013-07-10 10:19:00,72.5,68.1,29.83,SSE,167,1.2,1.2,86,0.00,CLR,,0.00,WeatherDisplay:10.37,2013-07-10 14:19:00,
2013-07-10 10:24:00,72.4,68.0,29.83,SSE,161,2.3,2.3,86,0.00,CLR,,0.00,WeatherDisplay:10.37,2013-07-10 14:24:00,
2013-07-10 10:29:00,72.3,68.2,29.83,SSE,167,4.6,4.6,87,0.00,CLR,,0.01,WeatherDisplay:10.37,2013-07-10 14:29:00,
2013-07-10 10:34:00,73.0,68.2,29.83,South,180,0.0,0.3,85,0.00,CLR,,0.00,WeatherDisplay:10.37,2013-07-10 14:34:00,
2013-07-10 10:39:00,71.3,67.9,29.83,West,264,0.0,0.1,89,0.03,RA,,0.03,WeatherDisplay:10.37,2013-07-10 14:39:00,
2013-07-10 10:44:00,70.2,66.8,29.83,WSW,238,0.0,0.1,89,0.06,RA,,0.07,WeatherDisplay:10.37,2013-07-10 14:44:00,
2013-07-10 11:58:00,68.4,66.3,29.81,ESE,115,2.3,2.3,93,0.22,CLR,,0.34,WeatherDisplay:10.37,2013-07-10 15:58:00,
2013-07-10 12:03:00,68.5,66.4,29.81,WSW,251,3.0,3.0,93,0.25,RA,,0.37,WeatherDisplay:10.37,2013-07-10 16:03:00,
2013-07-10 12:08:00,68.4,66.3,29.81,ESE,111,3.5,0.0,93,0.20,RA,,0.39,WeatherDisplay:10.37,2013-07-10 16:08:00,
2013-07-10 12:13:00,68.5,66.4,29.81,SE,125,2.3,2.3,93,0.20,RA,,0.40,WeatherDisplay:10.37,2013-07-10 16:13:00,
2013-07-10 12:18:00,68.8,66.7,29.81,SSE,148,1.2,1.2,93,0.18,RA,,0.40,WeatherDisplay:10.37,2013-07-10 16:18:00,
2013-07-10 12:23:00,69.0,66.9,29.81,South,178,2.3,2.3,93,0.14,,,0.40,WeatherDisplay:10.37,2013-07-10 16:23:00,
2013-07-10 12:28:00,68.9,66.8,29.80,SSE,147,3.5,3.5,93,0.09,CLR,,0.40,WeatherDisplay:10.37,2013-07-10 16:28:00,
2013-07-10 12:33:00,68.5,66.1,29.80,SSW,200,2.3,2.3,92,0.06,CLR,,0.40,WeatherDisplay:10.37,2013-07-10 16:33:00,
2013-07-10 12:38:00,68.5,66.1,29.81,West,267,4.6,4.6,92,0.06,CLR,,0.40,WeatherDisplay:10.37,2013-07-10 16:38:00,
2013-07-10 12:43:00,69.0,66.6,29.80,West,277,3.5,3.5,92,0.06,CLR,,0.40,WeatherDisplay:10.37,2013-07-10 16:43:00,
2013-07-10 12:48:00,69.2,66.8,29.80,South,190,3.5,3.5,92,0.06,CLR,,0.40,WeatherDisplay:10.37,2013-07-10 16:48:00,
2013-07-10 12:53:00,69.2,66.8,29.80,WSW,250,3.5,3.5,92,0.06,CLR,,0.40,WeatherDisplay:10.37,2013-07-10 16:53:00,
2013-07-10 12:58:00,69.0,66.3,29.80,NE,51,3.5,3.5,91,0.06,CLR,,0.40,WeatherDisplay:10.37,2013-07-10 16:58:00,
2013-07-10 13:03:00,69.0,66.3,29.80,NNW,340,3.5,3.5,91,0.03,CLR,,0.40,WeatherDisplay:10.37,2013-07-10 17:03:00,
2013-07-10 13:08:00,69.0,66.3,29.80,NNW,330,10.4,10.4,91,0.01,CLR,,0.40,WeatherDisplay:10.37,2013-07-10 17:08:00,
2013-07-10 13:13:00,69.4,66.7,29.79,South,184,5.8,5.8,91,0.00,CLR,,0.40,WeatherDisplay:10.37,2013-07-10 17:13:00,
2013-07-10 13:18:00,69.4,66.3,29.79,WSW,254,6.9,6.9,90,0.00,CLR,,0.40,WeatherDisplay:10.37,2013-07-10 17:18:00,
2013-07-10 13:23:00,69.3,66.6,29.80,WSW,240,5.8,5.8,91,0.00,CLR,,0.40,WeatherDisplay:10.37,2013-07-10 17:23:00,
2013-07-10 13:28:00,69.3,66.6,29.80,SSW,213,2.3,2.3,91,0.00,CLR,,0.40,WeatherDisplay:10.37,2013-07-10 17:28:00,
2013-07-10 13:33:00,69.8,67.1,29.79,SSE,159,5.8,5.8,91,0.00,CLR,,0.40,WeatherDisplay:10.37,2013-07-10 17:33:00,
2013-07-10 13:38:00,70.3,67.5,29.79,SE,134,3.5,3.5,91,0.00,CLR,,0.40,WeatherDisplay:10.37,2013-07-10 17:38:00,
2013-07-10 13:43:00,70.5,67.7,29.79,NW,312,3.5,3.5,91,0.00,CLR,,0.40,WeatherDisplay:10.37,2013-07-10 17:43:00,
2013-07-10 13:48:00,71.8,68.7,29.78,South,170,3.5,3.5,90,0.00,CLR,,0.40,WeatherDisplay:10.37,2013-07-10 17:48:00,
2013-07-10 13:53:00,73.6,70.2,29.78,South,185,6.9,6.9,89,0.00,CLR,,0.40,WeatherDisplay:10.37,2013-07-10 17:53:00,
2013-07-10 13:58:00,74.1,70.0,29.78,WSW,249,9.2,9.2,87,0.00,CLR,,0.40,WeatherDisplay:10.37,2013-07-10 17:58:00,
2013-07-10 14:03:00,73.7,69.9,29.77,SW,226,1.2,1.2,88,0.00,CLR,,0.40,WeatherDisplay:10.37,2013-07-10 18:03:00,
2013-07-10 14:08:00,73.8,70.0,29.77,SSE,165,2.3,2.3,88,0.00,CLR,,0.40,WeatherDisplay:10.37,2013-07-10 18:08:00,
2013-07-10 14:13:00,74.2,70.4,29.77,SSE,159,2.3,2.3,88,0.00,CLR,,0.40,WeatherDisplay:10.37,2013-07-10 18:13:00,
2013-07-10 14:18:00,74.6,70.5,29.77,South,170,1.2,0.0,87,0.00,CLR,,0.40,WeatherDisplay:10.37,2013-07-10 18:18:00,
2013-07-10 14:23:00,74.6,70.1,29.76,South,188,5.8,5.8,86,0.00,CLR,,0.40,WeatherDisplay:10.37,2013-07-10 18:23:00,
2013-07-10 14:28:00,74.6,70.5,29.76,SSE,149,3.5,3.5,87,0.00,CLR,,0.40,WeatherDisplay:10.37,2013-07-10 18:28:00,
2013-07-10 14:33:00,74.3,70.2,29.77,South,186,9.2,9.2,87,0.00,CLR,,0.40,WeatherDisplay:10.37,2013-07-10 18:33:00,
2013-07-10 14:38:00,74.1,70.0,29.76,WSW,242,1.2,1.2,87,0.00,CLR,,0.40,WeatherDisplay:10.37,2013-07-10 18:38:00,
2013-07-10 14:43:00,74.5,70.4,29.76,WSW,244,2.3,2.3,87,0.00,CLR,,0.40,WeatherDisplay:10.37,2013-07-10 18:43:00,
2013-07-10 14:48:00,75.1,71.0,29.76,SE,145,2.3,2.3,87,0.00,CLR,,0.40,WeatherDisplay:10.37,2013-07-10 18:48:00,
2013-07-10 14:53:00,75.5,70.3,29.76,WSW,243,10.4,10.4,84,0.00,CLR,,0.40,WeatherDisplay:10.37,2013-07-10 18:53:00,
2013-07-10 14:58:00,75.5,70.7,29.75,WSW,246,4.6,4.6,85,0.00,CLR,,0.40,WeatherDisplay:10.37,2013-07-10 18:58:00,
2013-07-10 15:03:00,75.6,70.8,29.75,WNW,292,3.5,3.5,85,0.00,CLR,,0.40,WeatherDisplay:10.37,2013-07-10 19:03:00,
2013-07-10 15:08:00,76.0,70.8,29.75,WSW,257,4.6,4.6,84,0.00,CLR,,0.40,WeatherDisplay:10.37,2013-07-10 19:08:00,
2013-07-10 15:13:00,76.6,71.0,29.75,SW,218,3.5,3.5,83,0.00,CLR,,0.40,WeatherDisplay:10.37,2013-07-10 19:13:00,
2013-07-10 15:18:00,76.9,71.3,29.75,SW,227,1.2,1.2,83,0.00,CLR,,0.40,WeatherDisplay:10.37,2013-07-10 19:18:00,
2013-07-10 15:23:00,77.4,71.1,29.74,WSW,254,4.0,4.0,81,0.00,CLR,,0.40,WeatherDisplay:10.37,2013-07-10 19:23:00,
2013-07-10 15:28:00,76.4,70.5,29.75,WSW,252,6.9,6.9,82,0.00,CLR,,0.40,WeatherDisplay:10.37,2013-07-10 19:28:00,
2013-07-10 15:33:00,76.1,70.2,29.75,WSW,249,4.0,4.0,82,0.00,CLR,,0.40,WeatherDisplay:10.37,2013-07-10 19:33:00,
2013-07-10 15:38:00,76.0,70.5,29.75,WSW,244,6.0,6.0,83,0.00,CLR,,0.40,WeatherDisplay:10.37,2013-07-10 19:38:00,
2013-07-10 15:43:00,75.8,70.3,29.75,NE,46,8.1,8.1,83,0.00,CLR,,0.40,WeatherDisplay:10.37,2013-07-10 19:43:00,
2013-07-10 15:48:00,76.1,70.9,29.75,NE,44,4.6,4.6,84,0.00,CLR,,0.40,WeatherDisplay:10.37,2013-07-10 19:48:00,
2013-07-10 15:53:00,76.4,70.9,29.75,West,269,3.5,3.5,83,0.00,CLR,,0.40,WeatherDisplay:10.37,2013-07-10 19:53:00,
2013-07-10 15:58:00,76.4,70.9,29.75,NNW,334,3.5,3.5,83,0.00,CLR,,0.40,WeatherDisplay:10.37,2013-07-10 19:58:00,
2013-07-10 16:03:00,76.2,70.3,29.75,SW,221,4.6,4.6,82,0.00,CLR,,0.40,WeatherDisplay:10.37,2013-07-10 20:03:00,
2013-07-10 16:08:00,75.8,70.3,29.75,NNW,342,3.5,3.5,83,0.00,CLR,,0.40,WeatherDisplay:10.37,2013-07-10 20:08:00,
2013-07-10 16:13:00,76.3,70.8,29.74,West,262,2.0,2.0,83,0.00,CLR,,0.40,WeatherDisplay:10.37,2013-07-10 20:13:00,
2013-07-10 16:18:00,76.4,70.5,29.75,SSW,195,4.6,4.6,82,0.00,CLR,,0.40,WeatherDisplay:10.37,2013-07-10 20:18:00,
2013-07-10 16:23:00,76.5,70.6,29.74,WSW,254,2.3,2.3,82,0.00,CLR,,0.40,WeatherDisplay:10.37,2013-07-10 20:23:00,
2013-07-10 16:28:00,77.2,71.3,29.74,SE,126,3.5,3.5,82,0.00,CLR,,0.40,WeatherDisplay:10.37,2013-07-10 20:28:00,
2013-07-10 16:33:00,77.3,71.0,29.74,WSW,252,5.0,5.0,81,0.00,CLR,,0.40,WeatherDisplay:10.37,2013-07-10 20:33:00,
2013-07-10 16:38:00,77.3,71.0,29.74,SE,141,1.2,1.2,81,0.00,CLR,,0.40,WeatherDisplay:10.37,2013-07-10 20:38:00,
2013-07-10 16:43:00,77.2,70.5,29.74,West,271,6.0,6.0,80,0.00,CLR,,0.40,WeatherDisplay:10.37,2013-07-10 20:43:00,
2013-07-10 16:48:00,76.9,70.3,29.74,SE,139,3.5,3.5,80,0.00,CLR,,0.40,WeatherDisplay:10.37,2013-07-10 20:48:00,
2013-07-10 16:53:00,76.8,70.5,29.74,SSE,158,6.9,6.9,81,0.00,CLR,,0.40,WeatherDisplay:10.37,2013-07-10 20:53:00,
2013-07-10 16:58:00,77.1,70.1,29.74,West,264,6.0,6.0,79,0.00,CLR,,0.40,WeatherDisplay:10.37,2013-07-10 20:58:00,
2013-07-10 17:03:00,77.1,70.5,29.74,WNW,287,4.0,4.0,80,0.00,CLR,,0.40,WeatherDisplay:10.37,2013-07-10 21:03:00,
2013-07-10 17:08:00,77.3,71.0,29.73,South,191,3.5,3.5,81,0.00,CLR,,0.40,WeatherDisplay:10.37,2013-07-10 21:08:00,
2013-07-10 17:13:00,77.6,70.9,29.74,SSE,156,3.5,3.5,80,0.00,CLR,,0.40,WeatherDisplay:10.37,2013-07-10 21:13:00,
2013-07-10 17:18:00,77.8,70.8,29.73,South,187,4.6,4.6,79,0.00,CLR,,0.40,WeatherDisplay:10.37,2013-07-10 21:18:00,
2013-07-10 17:23:00,77.7,70.7,29.73,West,275,6.9,6.9,79,0.00,CLR,,0.40,WeatherDisplay:10.37,2013-07-10 21:23:00,
2013-07-10 17:28:00,77.7,70.7,29.74,West,263,3.5,3.5,79,0.00,CLR,,0.40,WeatherDisplay:10.37,2013-07-10 21:28:00,
2013-07-10 17:33:00,77.7,70.3,29.74,South,188,5.8,5.8,78,0.00,CLR,,0.40,WeatherDisplay:10.37,2013-07-10 21:33:00,
2013-07-10 17:38:00,77.8,70.0,29.74,WSW,242,6.9,6.9,77,0.00,CLR,,0.40,WeatherDisplay:10.37,2013-07-10 21:38:00,
2013-07-10 17:43:00,77.9,70.5,29.74,WSW,245,4.6,4.6,78,0.00,CLR,,0.40,WeatherDisplay:10.37,2013-07-10 21:43:00,
2013-07-10 17:48:00,77.5,70.5,29.74,WSW,242,2.3,2.3,79,0.00,CLR,,0.40,WeatherDisplay:10.37,2013-07-10 21:48:00,
2013-07-10 17:53:00,77.8,70.4,29.74,WNW,298,3.5,3.5,78,0.00,CLR,,0.40,WeatherDisplay:10.37,2013-07-10 21:53:00,
2013-07-10 17:58:00,78.2,70.8,29.74,SW,223,3.5,3.5,78,0.00,CLR,,0.40,WeatherDisplay:10.37,2013-07-10 21:58:00,
2013-07-10 18:03:00,78.7,70.5,29.73,SE,136,2.3,2.3,76,0.00,CLR,,0.40,WeatherDisplay:10.37,2013-07-10 22:03:00,
2013-07-10 18:08:00,78.9,70.7,29.74,South,189,3.0,3.0,76,0.00,CLR,,0.40,WeatherDisplay:10.37,2013-07-10 22:08:00,
2013-07-10 18:13:00,78.6,70.4,29.74,West,259,4.6,4.6,76,0.00,CLR,,0.40,WeatherDisplay:10.37,2013-07-10 22:13:00,
2013-07-10 18:18:00,78.0,70.2,29.74,WSW,243,3.5,3.5,77,0.00,CLR,,0.40,WeatherDisplay:10.37,2013-07-10 22:18:00,
2013-07-10 18:23:00,77.3,69.5,29.75,WSW,248,13.8,13.8,77,0.00,CLR,,0.40,WeatherDisplay:10.37,2013-07-10 22:23:00,
2013-07-10 18:28:00,77.1,70.1,29.74,SSE,158,10.4,10.4,79,0.00,CLR,,0.40,WeatherDisplay:10.37,2013-07-10 22:28:00,
2013-07-10 18:33:00,77.9,70.9,29.74,South,191,1.2,1.2,79,0.00,CLR,,0.40,WeatherDisplay:10.37,2013-07-10 22:33:00,
2013-07-10 18:38:00,77.9,70.1,29.74,West,265,4.6,4.6,77,0.00,CLR,,0.40,WeatherDisplay:10.37,2013-07-10 22:38:00,
2013-07-10 18:43:00,78.1,70.7,29.74,SSW,212,9.2,9.2,78,0.00,CLR,,0.40,WeatherDisplay:10.37,2013-07-10 22:43:00,
2013-07-10 18:48:00,78.2,70.8,29.74,SE,138,2.3,2.3,78,0.00,CLR,,0.40,WeatherDisplay:10.37,2013-07-10 22:48:00,
2013-07-10 18:53:00,78.3,70.1,29.74,WSW,244,9.2,9.2,76,0.00,CLR,,0.40,WeatherDisplay:10.37,2013-07-10 22:53:00,
2013-07-10 18:58:00,78.1,70.7,29.75,SSE,149,2.3,2.3,78,0.00,CLR,,0.40,WeatherDisplay:10.37,2013-07-10 22:58:00,
2013-07-10 19:03:00,77.8,70.4,29.75,WSW,254,5.0,5.0,78,0.00,CLR,,0.40,WeatherDisplay:10.37,2013-07-10 23:03:00,
2013-07-10 19:08:00,77.6,70.6,29.75,SSW,196,3.5,3.5,79,0.00,CLR,,0.40,WeatherDisplay:10.37,2013-07-10 23:08:00,
2013-07-10 19:13:00,77.7,70.3,29.74,WNW,286,1.2,1.2,78,0.00,CLR,,0.40,WeatherDisplay:10.37,2013-07-10 23:13:00,
2013-07-10 19:18:00,77.3,69.9,29.75,SSW,209,5.8,5.8,78,0.00,CLR,,0.40,WeatherDisplay:10.37,2013-07-10 23:18:00,
2013-07-10 19:23:00,77.1,70.5,29.75,South,182,0.0,0.2,80,0.00,CLR,,0.40,WeatherDisplay:10.37,2013-07-10 23:23:00,
2013-07-10 19:28:00,76.9,70.6,29.75,WNW,292,4.6,4.6,81,0.00,CLR,,0.40,WeatherDisplay:10.37,2013-07-10 23:28:00,
2013-07-10 19:33:00,76.7,70.1,29.74,South,190,2.3,2.3,80,0.00,CLR,,0.40,WeatherDisplay:10.37,2013-07-10 23:33:00,
2013-07-10 19:38:00,76.7,70.1,29.74,South,170,3.5,3.5,80,0.00,CLR,,0.40,WeatherDisplay:10.37,2013-07-10 23:38:00,
2013-07-10 19:44:00,76.5,70.2,29.72,South,178,2.3,2.3,81,0.00,CLR,,0.40,WeatherDisplay:10.37,2013-07-10 23:44:00,
2013-07-10 19:49:00,76.1,69.8,29.73,SSE,155,1.2,1.2,81,0.00,CLR,,0.40,WeatherDisplay:10.37,2013-07-10 23:49:00,
2013-07-10 19:54:00,76.0,70.1,29.73,South,190,1.2,1.2,82,0.00,CLR,,0.40,WeatherDisplay:10.37,2013-07-10 23:54:00,
2013-07-10 19:59:00,75.6,70.1,29.73,SW,217,1.2,0.0,83,0.00,CLR,,0.40,WeatherDisplay:10.37,2013-07-10 23:59:00,
2013-07-10 20:04:00,75.3,69.8,29.74,South,185,2.3,2.3,83,0.00,CLR,,0.40,WeatherDisplay:10.37,2013-07-11 00:04:00,
2013-07-10 20:09:00,75.2,69.7,29.74,SSW,193,1.2,1.2,83,0.00,CLR,,0.40,WeatherDisplay:10.37,2013-07-11 00:09:00,
2013-07-10 20:14:00,75.0,69.8,29.73,South,178,0.0,0.0,84,0.00,CLR,,0.40,WeatherDisplay:10.37,2013-07-11 00:14:00,
2013-07-10 20:19:00,74.6,69.8,29.74,South,184,2.3,2.3,85,0.00,CLR,,0.40,WeatherDisplay:10.37,2013-07-11 00:19:00,
2013-07-10 20:24:00,74.5,69.7,29.73,SE,145,3.5,3.5,85,0.00,CLR,,0.40,WeatherDisplay:10.37,2013-07-11 00:24:00,
2013-07-10 20:29:00,74.2,69.7,29.74,South,182,1.2,1.2,86,0.00,CLR,,0.40,WeatherDisplay:10.37,2013-07-11 00:29:00,
2013-07-10 20:34:00,74.1,69.6,29.74,South,180,1.2,1.2,86,0.00,CLR,,0.40,WeatherDisplay:10.37,2013-07-11 00:34:00,
2013-07-10 20:39:00,74.0,69.5,29.74,South,180,1.2,1.2,86,0.00,CLR,,0.40,WeatherDisplay:10.37,2013-07-11 00:39:00,
2013-07-10 20:44:00,73.6,69.5,29.75,South,184,1.2,1.2,87,0.00,CLR,,0.40,WeatherDisplay:10.37,2013-07-11 00:44:00,
2013-07-10 20:49:00,73.9,69.4,29.75,South,179,3.5,3.5,86,0.00,CLR,,0.40,WeatherDisplay:10.37,2013-07-11 00:49:00,
2013-07-10 20:54:00,74.1,69.6,29.75,SSE,160,0.0,0.4,86,0.00,CLR,,0.40,WeatherDisplay:10.37,2013-07-11 00:54:00,
2013-07-10 20:59:00,74.2,69.7,29.75,SSE,153,1.2,1.2,86,0.00,CLR,,0.40,WeatherDisplay:10.37,2013-07-11 00:59:00,
2013-07-10 21:04:00,73.8,69.3,29.75,South,178,2.3,2.3,86,0.00,CLR,,0.40,WeatherDisplay:10.37,2013-07-11 01:04:00,
2013-07-10 21:09:00,73.9,69.4,29.74,SSE,167,3.5,3.5,86,0.00,CLR,,0.40,WeatherDisplay:10.37,2013-07-11 01:09:00,
2013-07-10 21:14:00,74.1,69.3,29.74,SSW,196,3.5,3.5,85,0.00,CLR,,0.40,WeatherDisplay:10.37,2013-07-11 01:14:00,
2013-07-10 21:19:00,74.2,69.1,29.75,SSW,202,2.3,2.3,84,0.00,CLR,,0.40,WeatherDisplay:10.37,2013-07-11 01:19:00,
2013-07-10 21:24:00,73.8,68.7,29.76,South,175,3.5,3.5,84,0.00,CLR,,0.40,WeatherDisplay:10.37,2013-07-11 01:24:00,
2013-07-10 21:29:00,73.7,68.9,29.76,SSE,163,1.2,1.2,85,0.00,CLR,,0.40,WeatherDisplay:10.37,2013-07-11 01:29:00,
2013-07-10 21:34:00,73.1,68.7,29.75,South,181,2.3,2.3,86,0.00,CLR,,0.40,WeatherDisplay:10.37,2013-07-11 01:34:00,
2013-07-10 21:39:00,72.3,68.5,29.76,SSE,153,3.5,3.5,88,0.01,RA,,0.41,WeatherDisplay:10.37,2013-07-11 01:39:00,
2013-07-10 21:44:00,71.9,67.8,29.76,SSW,211,5.8,5.8,87,0.04,RA,,0.44,WeatherDisplay:10.37,2013-07-11 01:44:00,
2013-07-10 21:49:00,71.3,67.6,29.77,South,173,10.4,10.4,88,0.05,RA,,0.45,WeatherDisplay:10.37,2013-07-11 01:49:00,
2013-07-10 21:54:00,70.7,66.6,29.77,SSE,160,5.8,5.8,87,0.06,RA,,0.46,WeatherDisplay:10.37,2013-07-11 01:54:00,
2013-07-10 21:59:00,70.1,66.4,29.77,South,187,3.5,3.5,88,0.06,RA,,0.46,WeatherDisplay:10.37,2013-07-11 01:59:00,
2013-07-10 22:04:00,69.6,65.9,29.77,SE,128,3.5,3.5,88,0.08,RA,,0.48,WeatherDisplay:10.37,2013-07-11 02:04:00,
2013-07-10 22:09:00,69.0,65.6,29.76,ESE,119,0.0,0.0,89,0.08,RA,,0.48,WeatherDisplay:10.37,2013-07-11 02:09:00,
2013-07-10 22:14:00,68.3,65.3,29.76,ESE,118,2.3,2.3,90,0.08,,,0.48,WeatherDisplay:10.37,2013-07-11 02:14:00,
2013-07-10 22:19:00,67.7,64.7,29.77,South,175,1.2,1.2,90,0.08,CLR,,0.48,WeatherDisplay:10.37,2013-07-11 02:19:00,
2013-07-10 22:24:00,67.2,64.2,29.76,SSE,165,0.0,0.0,90,0.08,CLR,,0.48,WeatherDisplay:10.37,2013-07-11 02:24:00,
2013-07-10 22:29:00,67.0,64.3,29.76,SSE,163,1.2,1.2,91,0.08,CLR,,0.48,WeatherDisplay:10.37,2013-07-11 02:29:00,
2013-07-10 22:34:00,66.7,64.0,29.76,SSE,163,0.0,0.0,91,0.08,CLR,,0.48,WeatherDisplay:10.37,2013-07-11 02:34:00,
2013-07-10 22:39:00,66.5,63.8,29.76,SSE,163,1.2,0.0,91,0.07,CLR,,0.48,WeatherDisplay:10.37,2013-07-11 02:39:00,
2013-07-10 22:44:00,66.7,64.3,29.76,South,185,2.3,2.3,92,0.04,CLR,,0.48,WeatherDisplay:10.37,2013-07-11 02:44:00,
2013-07-10 22:49:00,66.7,64.3,29.76,South,183,1.2,1.2,92,0.03,CLR,,0.48,WeatherDisplay:10.37,2013-07-11 02:49:00,
2013-07-10 22:54:00,66.7,64.3,29.76,South,183,1.2,1.2,92,0.02,CLR,,0.48,WeatherDisplay:10.37,2013-07-11 02:54:00,
2013-07-10 22:59:00,66.8,64.4,29.76,South,183,1.2,0.0,92,0.02,CLR,,0.48,WeatherDisplay:10.37,2013-07-11 02:59:00,
2013-07-10 23:04:00,67.2,65.1,29.76,SSW,193,2.3,2.3,93,0.00,CLR,,0.48,WeatherDisplay:10.37,2013-07-11 03:04:00,
2013-07-10 23:09:00,67.4,65.3,29.76,SSE,151,2.3,2.3,93,0.00,CLR,,0.48,WeatherDisplay:10.37,2013-07-11 03:09:00,
2013-07-10 23:14:00,68.0,65.9,29.77,ENE,67,9.2,9.2,93,0.01,RA,,0.49,WeatherDisplay:10.37,2013-07-11 03:14:00,
2013-07-10 23:19:00,68.4,66.3,29.77,SSE,165,11.5,11.5,93,0.01,RA,,0.50,WeatherDisplay:10.37,2013-07-11 03:19:00,
2013-07-10 23:24:00,68.3,66.2,29.77,SE,140,3.5,3.5,93,0.03,RA,,0.51,WeatherDisplay:10.37,2013-07-11 03:24:00,
2013-07-10 23:29:00,68.1,65.7,29.77,West,264,2.3,2.3,92,0.03,RA,,0.51,WeatherDisplay:10.37,2013-07-11 03:29:00,
2013-07-10 23:34:00,67.7,65.3,29.77,WNW,296,3.5,3.5,92,0.03,CLR,,0.51,WeatherDisplay:10.37,2013-07-11 03:34:00,
2013-07-10 23:39:00,67.5,65.1,29.77,WSW,246,2.3,2.3,92,0.03,CLR,,0.51,WeatherDisplay:10.37,2013-07-11 03:39:00,
2013-07-10 23:44:00,67.4,65.0,29.77,ENE,71,1.2,1.2,92,0.03,CLR,,0.51,WeatherDisplay:10.37,2013-07-11 03:44:00,
2013-07-10 23:49:00,67.2,64.5,29.77,WSW,250,3.5,3.5,91,0.03,CLR,,0.51,WeatherDisplay:10.37,2013-07-11 03:49:00,
2013-07-10 23:54:00,67.1,64.4,29.76,South,171,2.3,2.3,91,0.03,CLR,,0.51,WeatherDisplay:10.37,2013-07-11 03:54:00,
2013-07-10 23:59:00,67.1,64.4,29.77,SSW,205,3.5,3.5,91,0.03,CLR,,0.51,WeatherDisplay:10.37,2013-07-11 03:59:00,